{"data":{"norad_id":48315,"intl_designator":"2021-036AR","name":"STARLINK-2506","alt_names":[],"object_type":"PAYLOAD","status":"ACTIVE","operator":null,"country":"US","launch_date":"2021-04-29","launch_site_code":"AFETR","launch_vehicle":null,"mission":null,"orbit_class":"UNKNOWN","rcs_meters":null,"size_class":null,"mass_kg":null,"dimensions":null,"purposes":["comms"],"wikipedia_slug":null,"has_3d_model":false,"image_url":null,"decayed_at":null,"tle_current":{"epoch":"2026-05-25T03:01:18.763104Z","epoch_age_seconds":57555,"freshness":"FRESH","line1":"1 48315U 21036AR  26145.12591161  .00001781  00000+0  69170-4 0  9990","line2":"2 48315  53.1606 103.4247 0001698  80.0972 280.0221 15.31695619279767","mean_motion":15.31695619,"eccentricity":0.0001698,"inclination_deg":53.1606,"raan_deg":103.4247,"arg_perigee_deg":80.0972,"mean_anomaly_deg":280.0221,"bstar":6.917e-5,"rev_number":27976,"period_min":94.013456860322,"perigee_km":469.5901132585,"apogee_km":471.91599632111,"semimajor_km":6848.8900547898,"source":"CELESTRAK","updated_at":"2026-05-25T13:38:16.680259Z"}}}